Location: Aix-en-Ergny
(50.5839°N, 1.9996°E)
Time: 17:07:17
(UTC+00:00)

ADEOS II - Pass Details

Date: 23 October 2019
Orbit: 800 x 800 km, 98.5° (Epoch: 12 November)

Event Time Altitude Azimuth Distance (km) Brightness Sun altitude
Rises 03:50:49 0° 7° (N) 3,323 5.6 -25.3°
Reaches altitude 10° 03:53:25 10° 357° (N) 2,388 4.6 -24.9°
Enters shadow 03:56:02 23° 332° (NNW) 1,652 3.5 -24.5°
